LARES 2

operational
NORAD ID: 53105 Int'l Des: 2022-080 Owner: ASI Country: I
MEOCIRCULAR

About LARES 2

Description loading...

Live Position

Loading 3D Globe...

Upcoming Passes

Altitude History

Altitude vs Time

uPlot chart will show altitude changes over time

Two-Line Element Set

1 53105U 22080A 25344.25229229 -.00000023 00000-0 00000-0 0 9993
2 53105 70.1787 10.1098 0005202 14.8717 345.2166 6.38965075 79598
Epoch: Dec 10, 2025 • Age: 42 hours

Current Status

Altitude 5900.0 km
Velocity 5.70 km/s
Sub-Earth Point 66.28°N, 46.86°E
Launch Date Jul 13, 2022
Age 3.4 years
Type other

Technical Details

Classification Payload
Mass 295.00 kg
Dry Mass 295.00 kg
Total Mass 295.00 kg
Length 0.42 m
Diameter 0.42 m
Span 0.42 m
Shape Sphere
Manufacturer OHBI
Bus Type Lares
Phase Status In Orbit
Owner/State ASI/I

Large Constellations

Loading constellations...